Time,TemperatureF,DewpointF,PressureIn,WindDirection,WindDirectionDegrees,WindSpeedMPH,WindSpeedGustMPH,Humidity,HourlyPrecipIn,Conditions,Clouds,dailyrainin,SoftwareType,DateUTC
2013-01-02 00:03:00,31.0,22.0,-100.00,NNE,25,4.0,7.0,68,0.00,,,-99.99,,2013-01-02 05:03:00,
2013-01-02 00:12:00,31.0,22.0,-100.00,NNE,30,4.0,7.0,68,0.00,,,-99.99,,2013-01-02 05:12:00,
2013-01-02 00:22:00,31.0,21.0,-100.00,NNE,30,4.0,7.0,68,0.00,,,-99.99,,2013-01-02 05:22:00,
2013-01-02 00:33:00,31.0,21.0,-100.00,NNE,30,4.0,7.0,68,0.00,,,-99.99,,2013-01-02 05:33:00,
2013-01-02 00:42:00,31.0,21.0,-100.00,NNE,15,5.0,9.0,67,0.00,,,-99.99,,2013-01-02 05:42:00,
2013-01-02 00:52:00,31.0,21.0,-100.00,North,0,4.0,7.0,67,0.00,,,-99.99,,2013-01-02 05:52:00,
2013-01-02 01:02:00,31.0,21.0,-100.00,North,0,4.0,7.0,67,0.00,,,-99.99,,2013-01-02 06:02:00,
2013-01-02 01:12:00,30.0,20.0,-100.00,NNW,335,4.0,7.0,68,0.00,,,-99.99,,2013-01-02 06:12:00,
2013-01-02 01:22:00,30.0,20.0,-100.00,North,0,4.0,7.0,68,0.00,,,-99.99,,2013-01-02 06:22:00,
2013-01-02 01:32:00,30.0,20.0,-100.00,North,0,4.0,7.0,68,0.00,,,-99.99,,2013-01-02 06:32:00,
2013-01-02 01:42:00,30.0,20.0,-100.00,North,0,4.0,7.0,68,0.00,,,-99.99,,2013-01-02 06:42:00,
2013-01-02 01:52:00,30.0,20.0,-100.00,North,0,4.0,7.0,66,0.00,,,-99.99,,2013-01-02 06:52:00,
2013-01-02 02:02:00,30.0,20.0,-100.00,North,0,4.0,7.0,66,0.00,,,-99.99,,2013-01-02 07:02:00,
2013-01-02 02:12:00,30.0,20.0,-100.00,NNW,345,4.0,7.0,66,0.00,,,-99.99,,2013-01-02 07:12:00,
2013-01-02 02:22:00,30.0,20.0,-100.00,NNE,15,4.0,7.0,66,0.00,,,-99.99,,2013-01-02 07:22:00,
2013-01-02 02:32:00,30.0,20.0,-100.00,NNE,15,4.0,7.0,66,0.00,,,-99.99,,2013-01-02 07:32:00,
2013-01-02 02:42:00,30.0,20.0,-100.00,North,10,4.0,7.0,65,0.00,,,-99.99,,2013-01-02 07:42:00,
2013-01-02 02:52:00,30.0,20.0,-100.00,North,5,5.0,7.0,65,0.00,,,-99.99,,2013-01-02 07:52:00,
2013-01-02 03:02:00,30.0,20.0,-100.00,North,5,5.0,7.0,65,0.00,,,-99.99,,2013-01-02 08:02:00,
2013-01-02 03:12:00,30.0,20.0,-100.00,North,0,4.0,7.0,66,0.00,,,-99.99,,2013-01-02 08:12:00,
2013-01-02 03:22:00,30.0,20.0,-100.00,North,5,3.0,6.0,66,0.00,,,-99.99,,2013-01-02 08:22:00,
2013-01-02 03:32:00,30.0,20.0,-100.00,North,5,3.0,6.0,66,0.00,,,-99.99,,2013-01-02 08:32:00,
2013-01-02 03:42:00,29.0,19.0,-100.00,North,350,3.0,7.0,67,0.00,,,-99.99,,2013-01-02 08:42:00,
2013-01-02 03:52:00,29.0,19.0,-100.00,North,10,4.0,7.0,67,0.00,,,-99.99,,2013-01-02 08:52:00,
2013-01-02 04:02:00,29.0,19.0,-100.00,North,10,4.0,7.0,67,0.00,,,-99.99,,2013-01-02 09:02:00,
2013-01-02 04:12:00,29.0,19.0,-100.00,NNE,25,4.0,9.0,67,0.00,,,-99.99,,2013-01-02 09:12:00,
2013-01-02 04:22:00,28.0,18.0,-100.00,North,10,5.0,9.0,67,0.00,,,-99.99,,2013-01-02 09:22:00,
2013-01-02 04:32:00,28.0,18.0,-100.00,North,10,5.0,9.0,67,0.00,,,-99.99,,2013-01-02 09:32:00,
2013-01-02 04:43:00,28.0,18.0,-100.00,North,10,4.0,7.0,67,0.00,,,-99.99,,2013-01-02 09:43:00,
2013-01-02 04:52:00,28.0,18.0,-100.00,NNW,340,3.0,7.0,68,0.00,,,-99.99,,2013-01-02 09:52:00,
2013-01-02 05:02:00,28.0,18.0,-100.00,NNW,340,3.0,7.0,68,0.00,,,-99.99,,2013-01-02 10:02:00,
2013-01-02 05:12:00,28.0,18.0,-100.00,North,0,4.0,9.0,68,0.00,,,-99.99,,2013-01-02 10:12:00,
2013-01-02 05:22:00,28.0,18.0,-100.00,North,5,4.0,9.0,67,0.00,,,-99.99,,2013-01-02 10:22:00,
2013-01-02 05:32:00,28.0,18.0,-100.00,North,5,4.0,9.0,67,0.00,,,-99.99,,2013-01-02 10:32:00,
2013-01-02 05:42:00,28.0,18.0,-100.00,North,10,7.0,12.0,66,0.00,,,-99.99,,2013-01-02 10:42:00,
2013-01-02 05:52:00,27.0,17.0,-100.00,North,5,7.0,11.0,66,0.00,,,-99.99,,2013-01-02 10:52:00,
2013-01-02 06:02:00,27.0,17.0,-100.00,North,5,7.0,11.0,66,0.00,,,-99.99,,2013-01-02 11:02:00,
2013-01-02 06:12:00,27.0,17.0,-100.00,North,5,6.0,9.0,66,0.00,,,-99.99,,2013-01-02 11:12:00,
2013-01-02 06:22:00,27.0,17.0,-100.00,NNW,335,4.0,10.0,66,0.00,,,-99.99,,2013-01-02 11:22:00,
2013-01-02 06:33:00,27.0,17.0,-100.00,NNW,335,4.0,10.0,66,0.00,,,-99.99,,2013-01-02 11:33:00,
2013-01-02 06:42:00,27.0,16.0,-100.00,North,0,4.0,10.0,65,0.00,,,-99.99,,2013-01-02 11:42:00,
2013-01-02 06:52:00,27.0,16.0,-100.00,North,0,4.0,10.0,65,0.00,,,-99.99,,2013-01-02 11:52:00,
2013-01-02 07:03:00,26.0,16.0,-100.00,NNW,335,4.0,9.0,65,0.00,,,-99.99,,2013-01-02 12:03:00,
2013-01-02 07:12:00,26.0,16.0,-100.00,NW,320,6.0,12.0,65,0.00,,,-99.99,,2013-01-02 12:12:00,
2013-01-02 07:22:00,26.0,15.0,-100.00,NNW,330,3.0,13.0,64,0.00,,,-99.99,,2013-01-02 12:22:00,
2013-01-02 07:33:00,26.0,15.0,-100.00,NNW,330,3.0,13.0,64,0.00,,,-99.99,,2013-01-02 12:33:00,
2013-01-02 07:42:00,26.0,15.0,-100.00,North,0,4.0,8.0,64,0.00,,,-99.99,,2013-01-02 12:42:00,
2013-01-02 07:53:00,25.0,15.0,-100.00,NNW,330,3.0,9.0,64,0.00,,,-99.99,,2013-01-02 12:53:00,
2013-01-02 08:03:00,25.0,15.0,-100.00,NNW,330,3.0,9.0,64,0.00,,,-99.99,,2013-01-02 13:03:00,
2013-01-02 08:12:00,25.0,15.0,-100.00,NNW,330,2.0,6.0,65,0.00,,,-99.99,,2013-01-02 13:12:00,
2013-01-02 08:22:00,25.0,15.0,-100.00,North,0,3.0,6.0,65,0.00,,,-99.99,,2013-01-02 13:22:00,
2013-01-02 08:33:00,25.0,15.0,-100.00,North,0,3.0,6.0,65,0.00,,,-99.99,,2013-01-02 13:33:00,
2013-01-02 08:43:00,25.0,15.0,-100.00,NNE,15,4.0,7.0,64,0.00,,,-99.99,,2013-01-02 13:43:00,
2013-01-02 08:52:00,26.0,15.0,-100.00,NNE,15,4.0,7.0,64,0.00,,,-99.99,,2013-01-02 13:52:00,
2013-01-02 09:02:00,26.0,15.0,-100.00,NNE,15,4.0,7.0,64,0.00,,,-99.99,,2013-01-02 14:02:00,
2013-01-02 09:12:00,26.0,15.0,-100.00,NNW,340,4.0,9.0,62,0.00,,,-99.99,,2013-01-02 14:12:00,
2013-01-02 09:22:00,26.0,15.0,-100.00,NNW,330,5.0,12.0,61,0.00,,,-99.99,,2013-01-02 14:22:00,
2013-01-02 09:33:00,26.0,15.0,-100.00,NNW,330,5.0,12.0,61,0.00,,,-99.99,,2013-01-02 14:33:00,
2013-01-02 09:43:00,27.0,15.0,-100.00,North,0,7.0,12.0,60,0.00,,,-99.99,,2013-01-02 14:43:00,
2013-01-02 09:53:00,27.0,15.0,-100.00,North,0,5.0,12.0,59,0.00,,,-99.99,,2013-01-02 14:53:00,
2013-01-02 10:03:00,27.0,15.0,-100.00,North,0,5.0,12.0,59,0.00,,,-99.99,,2013-01-02 15:03:00,
2013-01-02 10:12:00,27.0,15.0,-100.00,North,0,5.0,12.0,59,0.00,,,-99.99,,2013-01-02 15:12:00,
2013-01-02 10:22:00,27.0,15.0,-100.00,North,0,5.0,12.0,59,0.00,,,-99.99,,2013-01-02 15:22:00,
2013-01-02 10:33:00,27.0,15.0,-100.00,North,0,5.0,12.0,59,0.00,,,-99.99,,2013-01-02 15:33:00,
2013-01-02 10:43:00,27.0,15.0,-100.00,North,0,5.0,12.0,59,0.00,,,-99.99,,2013-01-02 15:43:00,
2013-01-02 11:54:00,31.0,13.0,-100.00,NNW,340,3.0,12.0,48,0.00,,,-99.99,,2013-01-02 16:54:00,
2013-01-02 12:04:00,31.0,13.0,-100.00,NNW,340,3.0,12.0,48,0.00,,,-99.99,,2013-01-02 17:04:00,
2013-01-02 12:13:00,31.0,13.0,-100.00,NNW,345,4.0,9.0,48,0.00,,,-99.99,,2013-01-02 17:13:00,
2013-01-02 12:23:00,31.0,13.0,-100.00,NNW,345,4.0,9.0,48,0.00,,,-99.99,,2013-01-02 17:23:00,
2013-01-02 12:33:00,32.0,14.0,-100.00,NW,320,5.0,9.0,46,0.00,,,-99.99,,2013-01-02 17:33:00,
2013-01-02 12:43:00,32.0,14.0,-100.00,NW,320,5.0,9.0,46,0.00,,,-99.99,,2013-01-02 17:43:00,
2013-01-02 12:53:00,32.0,14.0,-100.00,NW,320,5.0,9.0,46,0.00,,,-99.99,,2013-01-02 17:53:00,
2013-01-02 13:03:00,32.0,14.0,-100.00,NW,320,5.0,9.0,46,0.00,,,-99.99,,2013-01-02 18:03:00,
2013-01-02 13:13:00,33.0,13.0,-100.00,NNW,335,4.0,11.0,43,0.00,,,-99.99,,2013-01-02 18:13:00,
2013-01-02 13:23:00,34.0,14.0,-100.00,WNW,300,6.0,12.0,42,0.00,,,-99.99,,2013-01-02 18:23:00,
2013-01-02 13:33:00,34.0,14.0,-100.00,WNW,300,6.0,12.0,42,0.00,,,-99.99,,2013-01-02 18:33:00,
2013-01-02 13:43:00,35.0,13.0,-100.00,NW,325,7.0,12.0,40,0.00,,,-99.99,,2013-01-02 18:43:00,
2013-01-02 13:53:00,33.0,12.0,-100.00,NNW,345,6.0,12.0,41,0.00,,,-99.99,,2013-01-02 18:53:00,
2013-01-02 14:03:00,33.0,12.0,-100.00,NNW,345,6.0,12.0,41,0.00,,,-99.99,,2013-01-02 19:03:00,
2013-01-02 14:12:00,34.0,12.0,-100.00,NNW,335,6.0,11.0,41,0.00,,,-99.99,,2013-01-02 19:12:00,
2013-01-02 14:23:00,34.0,13.0,-100.00,NW,320,6.0,13.0,42,0.00,,,-99.99,,2013-01-02 19:23:00,
2013-01-02 14:33:00,34.0,13.0,-100.00,NW,320,6.0,13.0,42,0.00,,,-99.99,,2013-01-02 19:33:00,
2013-01-02 14:43:00,34.0,13.0,-100.00,NW,310,6.0,12.0,41,0.00,,,-99.99,,2013-01-02 19:43:00,
2013-01-02 14:52:00,34.0,13.0,-100.00,NW,310,6.0,12.0,41,0.00,,,-99.99,,2013-01-02 19:52:00,
2013-01-02 15:03:00,34.0,12.0,-100.00,NNW,330,6.0,11.0,40,0.00,,,-99.99,,2013-01-02 20:03:00,
2013-01-02 15:12:00,34.0,13.0,-100.00,NNW,335,5.0,13.0,40,0.00,,,-99.99,,2013-01-02 20:12:00,
2013-01-02 15:23:00,34.0,12.0,-100.00,NW,315,6.0,12.0,39,0.00,,,-99.99,,2013-01-02 20:23:00,
2013-01-02 15:33:00,34.0,12.0,-100.00,NW,315,6.0,12.0,39,0.00,,,-99.99,,2013-01-02 20:33:00,
2013-01-02 15:42:00,34.0,12.0,-100.00,NW,310,5.0,11.0,39,0.00,,,-99.99,,2013-01-02 20:42:00,
2013-01-02 15:53:00,33.0,11.0,-100.00,NW,310,6.0,12.0,39,0.00,,,-99.99,,2013-01-02 20:53:00,
2013-01-02 16:03:00,33.0,11.0,-100.00,NW,310,6.0,12.0,39,0.00,,,-99.99,,2013-01-02 21:03:00,
2013-01-02 16:13:00,32.0,11.0,-100.00,NW,325,6.0,13.0,40,0.00,,,-99.99,,2013-01-02 21:13:00,
2013-01-02 16:22:00,32.0,10.0,-100.00,NW,310,6.0,11.0,40,0.00,,,-99.99,,2013-01-02 21:22:00,
2013-01-02 16:33:00,32.0,10.0,-100.00,NW,310,6.0,11.0,40,0.00,,,-99.99,,2013-01-02 21:33:00,
2013-01-02 16:43:00,31.0,9.0,-100.00,NNW,330,4.0,10.0,40,0.00,,,-99.99,,2013-01-02 21:43:00,
2013-01-02 16:52:00,31.0,9.0,-100.00,NW,310,5.0,7.0,41,0.00,,,-99.99,,2013-01-02 21:52:00,
2013-01-02 17:03:00,31.0,9.0,-100.00,NW,310,5.0,7.0,41,0.00,,,-99.99,,2013-01-02 22:03:00,
2013-01-02 17:12:00,29.0,9.0,-100.00,NW,320,4.0,7.0,43,0.00,,,-99.99,,2013-01-02 22:12:00,
2013-01-02 17:22:00,28.0,9.0,-100.00,NW,315,3.0,7.0,45,0.00,,,-99.99,,2013-01-02 22:22:00,
2013-01-02 17:32:00,28.0,9.0,-100.00,NW,315,3.0,7.0,45,0.00,,,-99.99,,2013-01-02 22:32:00,
2013-01-02 17:42:00,27.0,9.0,-100.00,North,350,1.0,5.0,46,0.00,,,-99.99,,2013-01-02 22:42:00,
2013-01-02 17:52:00,28.0,9.0,-100.00,North,0,1.0,4.0,46,0.00,,,-99.99,,2013-01-02 22:52:00,
2013-01-02 18:03:00,28.0,9.0,-100.00,North,0,1.0,4.0,46,0.00,,,-99.99,,2013-01-02 23:03:00,
2013-01-02 18:13:00,27.0,9.0,-100.00,NW,325,3.0,4.0,47,0.00,,,-99.99,,2013-01-02 23:13:00,
2013-01-02 18:23:00,26.0,9.0,-100.00,NW,325,2.0,6.0,49,0.00,,,-99.99,,2013-01-02 23:23:00,
2013-01-02 18:33:00,26.0,9.0,-100.00,NW,325,2.0,6.0,49,0.00,,,-99.99,,2013-01-02 23:33:00,
2013-01-02 18:42:00,26.0,9.0,-100.00,NW,320,1.0,4.0,48,0.00,,,-99.99,,2013-01-02 23:42:00,
2013-01-02 18:52:00,25.0,8.0,-100.00,NW,315,2.0,3.0,49,0.00,,,-99.99,,2013-01-02 23:52:00,
2013-01-02 19:02:00,25.0,8.0,-100.00,NW,315,2.0,3.0,49,0.00,,,-99.99,,2013-01-03 00:02:00,
2013-01-02 19:12:00,24.0,8.0,-100.00,NW,310,0.0,2.0,51,0.00,,,-99.99,,2013-01-03 00:12:00,
2013-01-02 19:22:00,25.0,9.0,-100.00,North,5,1.0,2.0,51,0.00,,,-99.99,,2013-01-03 00:22:00,
2013-01-02 19:38:00,25.0,9.0,-100.00,North,5,1.0,2.0,51,0.00,,,-99.99,,2013-01-03 00:38:00,
2013-01-02 19:52:00,25.0,9.0,-100.00,NW,310,2.0,3.0,52,0.00,,,-99.99,,2013-01-03 00:52:00,
2013-01-02 20:02:00,25.0,9.0,-100.00,NW,310,2.0,3.0,52,0.00,,,-99.99,,2013-01-03 01:02:00,
2013-01-02 20:12:00,25.0,9.0,-100.00,NW,305,3.0,4.0,52,0.00,,,-99.99,,2013-01-03 01:12:00,
2013-01-02 20:22:00,26.0,10.0,-100.00,NNW,335,2.0,4.0,51,0.00,,,-99.99,,2013-01-03 01:22:00,
2013-01-02 20:32:00,26.0,10.0,-100.00,NNW,335,2.0,4.0,51,0.00,,,-99.99,,2013-01-03 01:32:00,
2013-01-02 20:42:00,24.0,9.0,-100.00,NW,320,2.0,4.0,53,0.00,,,-99.99,,2013-01-03 01:42:00,
2013-01-02 20:52:00,24.0,10.0,-100.00,NW,320,3.0,4.0,55,0.00,,,-99.99,,2013-01-03 01:52:00,
2013-01-02 21:02:00,24.0,10.0,-100.00,NW,320,3.0,4.0,55,0.00,,,-99.99,,2013-01-03 02:02:00,
2013-01-02 21:12:00,24.0,10.0,-100.00,East,100,0.0,2.0,54,0.00,,,-99.99,,2013-01-03 02:12:00,
2013-01-02 21:22:00,25.0,10.0,-100.00,North,350,2.0,3.0,53,0.00,,,-99.99,,2013-01-03 02:22:00,
2013-01-02 21:33:00,25.0,10.0,-100.00,North,350,2.0,3.0,53,0.00,,,-99.99,,2013-01-03 02:33:00,
2013-01-02 21:42:00,25.0,10.0,-100.00,North,350,2.0,3.0,53,0.00,,,-99.99,,2013-01-03 02:42:00,
2013-01-02 21:52:00,25.0,10.0,-100.00,North,350,2.0,3.0,53,0.00,,,-99.99,,2013-01-03 02:52:00,
2013-01-02 22:02:00,26.0,10.0,-100.00,NW,320,1.0,6.0,51,0.00,,,-99.99,,2013-01-03 03:02:00,
2013-01-02 22:12:00,26.0,10.0,-100.00,NE,35,1.0,6.0,51,0.00,,,-99.99,,2013-01-03 03:12:00,
2013-01-02 22:22:00,26.0,10.0,-100.00,NNW,330,2.0,2.0,51,0.00,,,-99.99,,2013-01-03 03:22:00,
2013-01-02 22:46:00,26.0,10.0,-100.00,NNW,330,2.0,2.0,51,0.00,,,-99.99,,2013-01-03 03:46:00,
2013-01-02 22:52:00,24.0,10.0,-100.00,NNW,335,0.0,2.0,55,0.00,,,-99.99,,2013-01-03 03:52:00,
2013-01-02 23:02:00,24.0,10.0,-100.00,NNW,335,0.0,2.0,55,0.00,,,-99.99,,2013-01-03 04:02:00,
2013-01-02 23:12:00,25.0,11.0,-100.00,SE,135,2.0,3.0,55,0.00,,,-99.99,,2013-01-03 04:12:00,
2013-01-02 23:22:00,25.0,11.0,-100.00,NW,325,3.0,4.0,54,0.00,,,-99.99,,2013-01-03 04:22:00,
2013-01-02 23:32:00,25.0,11.0,-100.00,NW,325,3.0,4.0,54,0.00,,,-99.99,,2013-01-03 04:32:00,
2013-01-02 23:42:00,26.0,10.0,-100.00,North,10,0.0,2.0,52,0.00,,,-99.99,,2013-01-03 04:42:00,
2013-01-02 23:52:00,25.0,10.0,-100.00,NW,325,1.0,4.0,52,0.00,,,-99.99,,2013-01-03 04:52:00,